Location: Unspecified
(0.0000°N, 0.0000°E)
Time: 09:07:37
(UTC+00:00)

Explorer 7 - All Passes

Search period start: 03 April 2020 00:00
Search period end: 13 April 2020 00:00
Orbit: 485 x 679 km, 50.3° (Epoch: 02 April)

Date Brightness Start Highest point End Pass type
(mag) Time Alt. Az. Time Alt. Az. Time Alt. Az.
03 Apr - 04:56:23 10° NNW 05:00:58 40° NE 05:05:28 10° ESE visible
03 Apr - 06:38:30 10° W 06:41:24 16° SW 06:44:14 10° SSW daylight
03 Apr - 16:59:26 10° SSW 17:03:04 49° SE 17:06:49 10° NE daylight
04 Apr - 05:00:54 10° NW 05:05:48 82° NE 05:10:35 10° SE visible
04 Apr - 17:04:10 10° SW 17:07:53 66° NW 17:11:43 10° NNE daylight
05 Apr - 03:27:42 10° NNE 03:30:06 14° NE 03:32:29 10° E visible
05 Apr - 05:05:53 10° NW 05:10:37 49° SW 05:15:14 10° SSE visible
05 Apr - 15:30:46 10° SSE 15:32:27 13° SE 15:34:09 10° E daylight
05 Apr - 17:09:29 10° WSW 17:12:44 27° NW 17:16:02 10° N daylight
06 Apr - 03:30:55 10° N 03:34:59 26° NE 03:39:01 10° ESE visible
06 Apr - 05:11:25 10° WNW 05:15:26 25° SW 05:19:22 10° S visible
06 Apr - 15:34:04 10° S 15:37:18 27° SE 15:40:33 10° ENE daylight
06 Apr - 17:15:53 10° W 17:17:36 13° NW 17:19:20 10° NNW daylight
07 Apr - 03:35:04 10° NNW 03:39:49 50° NE 03:44:31 10° SE visible
07 Apr - 05:18:00 10° W 05:20:17 13° SW 05:22:32 10° SSW visible
07 Apr - 15:38:24 10° SSW 15:42:07 66° SE 15:45:51 10° NE daylight
08 Apr - 03:39:43 10° NW 03:44:38 81° SW 03:49:30 10° SE visible
08 Apr - 15:43:18 10° SW 15:46:56 48° NW 15:50:35 10° NNE daylight
09 Apr - 02:05:53 10° NNE 02:08:58 17° NE 02:12:04 10° E night (unlit)
09 Apr - 03:44:51 10° WNW 03:49:26 40° SW 03:54:00 10° SSE visible
09 Apr - 14:09:06 10° SSE 14:11:29 16° SE 14:13:51 10° E daylight
09 Apr - 15:48:51 10° WSW 15:51:45 21° NW 15:54:40 10° N daylight
10 Apr - 02:09:30 10° N 02:13:49 31° NE 02:18:09 10° ESE night (unlit)
10 Apr - 03:50:36 10° WNW 03:54:16 21° SW 03:57:56 10° S night (unlit)
10 Apr - 14:12:51 10° SSW 14:16:19 35° SE 14:19:45 10° ENE daylight
11 Apr - 02:13:49 10° NNW 02:18:38 63° NE 02:23:28 10° SE night (unlit)
11 Apr - 03:58:01 10° WSW 03:59:09 11° SW 04:00:17 10° SW night (unlit)
11 Apr - 14:17:22 10° SW 14:21:08 88° ESE 14:24:52 10° NE daylight
12 Apr - 00:42:36 10° NE 00:42:56 10° NE 00:43:18 10° NE night (unlit)
12 Apr - 02:18:36 10° NW 02:23:26 65° SW 02:28:18 10° SSE night (unlit)
12 Apr - 14:22:27 10° WSW 14:25:56 36° NW 14:29:24 10° NNE daylight
